Regional Weather Roundup
Issued by NWS

Home | Current Version | Previous Version | Text Only | Print | Product List | Glossary Off
Versions: 1 2 3 4 5 6 7 8 9 10 11 12 13 14 15 16 17 18 19 20 21 22 23 24 25 26 27 28 29 30 31 32 33 34 35 36 37 38 39 40 41 42 43 44 45 46 47 48 49 50

000
ASUS43 KMKX 091821
RWRWI

WISCONSIN REGIONAL WEATHER ROUNDUP
NATIONAL WEATHER SERVICE MILWAUKEE/SULLIVAN WI
1200 PM CST FRI DEC 09 2016

NOTE: "FAIR" INDICATES FEW OR NO CLOUDS BELOW 12,000 FEET WITH NO
SIGNIFICANT WEATHER AND/OR OBSTRUCTIONS TO VISIBILITY.

WIZ001-002-006>008-014>016-023>028-091900-
NORTHWEST WISCONSIN

CITY           SKY/WX    TMP DP  RH WIND       PRES   REMARKS
SUPERIOR ARPT  CLOUDY    15   2  58 W10       30.52F WCI   2
6HR MIN TEMP:  14; 6HR MAX TEMP:  16;

ASHLAND        CLOUDY    16   6  65 W10       30.48F WCI   4
6HR MIN TEMP:  15; 6HR MAX TEMP:  17; 6HR PCP: TRACE;

HAYWARD        CLOUDY    16   5  62 W7        30.46F WCI   6
6HR MIN TEMP:  13; 6HR MAX TEMP:  17; 6HR PCP: TRACE;

SIREN          FLURRIES  16  10  76 W6        30.49F WCI   7
6HR MIN TEMP:  13; 6HR MAX TEMP:  16;

CUMBERLAND     LGT SNOW  18  10  73 W6        30.47F WCI   9
RICE LAKE      LGT SNOW  17  11  77 W7        30.50F WCI   8
6HR MIN TEMP:  10; 6HR MAX TEMP:  17;

CHETEK         FLURRIES  17  11  74 W3        30.49F
6HR MIN TEMP:  10; 6HR MAX TEMP:  18;

LADYSMITH      CLOUDY    18  10  71 SW6       30.47F WCI  10
6HR MIN TEMP:  11; 6HR MAX TEMP:  18;

EAU CLAIRE     CLOUDY    17  12  80 SW9       30.51F WCI   6
6HR MIN TEMP:   8; 6HR MAX TEMP:  18;

MENOMONIE      FLURRIES  19  13  78 W6        30.52F WCI  10
6HR MIN TEMP:  13; 6HR MAX TEMP:  19;

NEW RICHMOND   LGT SNOW  17  11  76 W7        30.51F WCI   8
6HR MIN TEMP:  13; 6HR MAX TEMP:  17;

OSCEOLA        LGT SNOW  17  12  79 SW10      30.55F WCI   5
6HR MIN TEMP:  14; 6HR MAX TEMP:  18;

$$

WIZ003>005-009-010-017-018-091900-
NORTH CENTRAL WISCONSIN

CITY           SKY/WX    TMP DP  RH WIND       PRES   REMARKS
MANITOWISH WTR CLOUDY    13   7  75 W10       30.38F WCI   0
6HR MIN TEMP:   8; 6HR MAX TEMP:  14;

ARBOR VITAE    FLURRIES  17   8  70 NW8       30.38F WCI   6
6HR MIN TEMP:  13; 6HR MAX TEMP:  17;

WOODRUFF       FLURRIES  17   8  70 NW8       30.38F WCI   6
6HR MIN TEMP:  13; 6HR MAX TEMP:  17;

RHINELANDER    CLOUDY    17   7  64 N7        30.38F WCI   8
6HR MIN TEMP:   8; 6HR MAX TEMP:  18;

EAGLE RIVER    PTSUNNY   17   5  61 NW9       30.36F WCI   5
6HR MIN TEMP:  14; 6HR MAX TEMP:  18;

LAND O LAKES   PTSUNNY   19  10  70 W6        30.37F WCI  10
6HR MIN TEMP:  14; 6HR MAX TEMP:  19;

PHILLIPS       CLOUDY    15   5  66 W7        30.41F WCI   5
6HR MIN TEMP:   7; 6HR MAX TEMP:  15;

TOMAHAWK       CLOUDY    16   8  70 NW7       30.41F WCI   6
6HR MIN TEMP:   6; 6HR MAX TEMP:  16;

MEDFORD        CLOUDY    15   7  70 NW7       30.42F WCI   5
6HR MIN TEMP:   7; 6HR MAX TEMP:  15;

MERRILL        CLOUDY    18   8  65 NW8       30.43F WCI   7
6HR MIN TEMP:  11; 6HR MAX TEMP:  18;

$$

WIZ029-030-035-036-043>047-091900-
CENTRAL WISCONSIN

CITY           SKY/WX    TMP DP  RH WIND       PRES   REMARKS
WAUSAU         CLOUDY    18   9  68 NW10      30.42F WCI   6
6HR MIN TEMP:  12; 6HR MAX TEMP:  19;

MOSINEE        MOSUNNY   18   9  68 W12       30.44F WCI   5
MARSHFIELD     CLOUDY    17   8  67 NW10      30.45F WCI   5
6HR MIN TEMP:   8; 6HR MAX TEMP:  17;

STEVENS POINT  SUNNY     17   6  62 W9        30.45F WCI   6
6HR MIN TEMP:  12; 6HR MAX TEMP:  18;

WAUPACA        SUNNY     25  11  54 W7        30.46F WCI  18
6HR MIN TEMP:  20; 6HR MAX TEMP:  25;

WAUTOMA        PTSUNNY   21  12  68 W13       30.48F WCI   9
6HR MIN TEMP:  15; 6HR MAX TEMP:  21;

WISC RAPIDS    CLOUDY    19   9  65 NW13      30.49F WCI   6
6HR MIN TEMP:  11; 6HR MAX TEMP:  20;

CAMP DOUGLAS   MOSUNNY   21  10  63 W9        30.50F WCI  11
$$

WIZ011>013-019>022-031-037>040-048>050-091900-
NORTHEAST WISCONSIN

CITY           SKY/WX    TMP DP  RH WIND       PRES   REMARKS
ANTIGO         PTSUNNY   17   8  70 W8        30.39F WCI   6
6HR MIN TEMP:  11; 6HR MAX TEMP:  18;

SHAWANO        SUNNY     26   9  48 NW12      30.43F WCI  15
6HR MIN TEMP:  20; 6HR MAX TEMP:  26;

OCONTO         MOSUNNY   24   9  52 NW6       30.42F WCI  17
6HR MIN TEMP:  14; 6HR MAX TEMP:  24;

STURGEON BAY   CLOUDY    25  11  55 W14       30.41F WCI  13
6HR MIN TEMP:  20; 6HR MAX TEMP:  25;

GREEN BAY      MOSUNNY   26  12  55 NW13      30.44F WCI  15
6HR MIN TEMP:  22; 6HR MAX TEMP:  26;

MANITOWOC      PTSUNNY   25  10  53 NW16      30.43F WCI  12
6HR MIN TEMP:  19; 6HR MAX TEMP:  26;

APPLETON       MOSUNNY   23   9  54 W12       30.43F WCI  12
CLINTONVILLE   SUNNY     25   9  50 NW15      30.44F WCI  12
OSHKOSH        MOSUNNY   24  11  57 NW10      30.45F WCI  14
6HR MIN TEMP:  17; 6HR MAX TEMP:  24;

$$

WIZ032>034-041-042-053>061-091900-
SOUTHWEST WISCONSIN

CITY           SKY/WX    TMP DP  RH WIND       PRES   REMARKS
LA CROSSE      MOSUNNY   24  12  60 W6        30.54F WCI  17
6HR MIN TEMP:  19; 6HR MAX TEMP:  24;

SPARTA         SUNNY     22  11  62 CALM      30.52F
6HR MIN TEMP:  18; 6HR MAX TEMP:  22;

VIROQUA        MOSUNNY   19  12  73 SW5       30.49F WCI  13
6HR MIN TEMP:  17; 6HR MAX TEMP:  19;

BOSCOBEL       SUNNY     23  12  62 N5        30.55F WCI  17
6HR MIN TEMP:  19; 6HR MAX TEMP:  24;

PRAIRIE DU CHI SUNNY     22  11  61 W7        30.56F WCI  13
6HR MIN TEMP:  14; 6HR MAX TEMP:  22;

PLATTEVILLE    SUNNY     20  14  77 NW6       30.53F WCI  13
6HR MIN TEMP:  14; 6HR MAX TEMP:  20;

$$

WIZ056-057-062-063-064-067-068-091900-
SOUTH CENTRAL WISCONSIN

CITY           SKY/WX    TMP DP  RH WIND       PRES   REMARKS
REEDSBURG      MOSUNNY   22  12  63 W8        30.50F WCI  13
6HR MIN TEMP:  16; 6HR MAX TEMP:  22;

BARABOO/DELLS  SUNNY     22  10  60 W6        30.49F WCI  15
6HR MIN TEMP:  16; 6HR MAX TEMP:  22;

LONE ROCK      PTSUNNY   25  13  60 W10       30.53F WCI  15
6HR MIN TEMP:  20; 6HR MAX TEMP:  25;

MINERAL POINT  MOSUNNY   23  16  74 W8        30.50F WCI  14
MADISON        MOSUNNY   22  10  60 NW8       30.50F WCI  12
6HR MIN TEMP:  19; 6HR MAX TEMP:  22; 6HR PCP: TRACE;

MIDDLETON      SUNNY     25  14  63 W9        30.51F WCI  15
6HR MIN TEMP:  20; 6HR MAX TEMP:  25;

WATERTOWN      SUNNY     23  13  65 NW9       30.48F WCI  13
6HR MIN TEMP:  17; 6HR MAX TEMP:  23;

MONROE         PTSUNNY   23  14  68 W7        30.49F WCI  15
JANESVILLE     MOSUNNY   25  12  58 NW9       30.51F WCI  15
$$

WIZ051-052-058>065-066-070>072-091900-
SOUTHEAST WISCONSIN

CITY           SKY/WX    TMP DP  RH WIND       PRES   REMARKS
MILWAUKEE      PTSUNNY   25   9  50 NW14      30.47F WCI  13
6HR MIN TEMP:  22; 6HR MAX TEMP:  27;

WAUKESHA       MOSUNNY   23  12  63 W12       30.47F WCI  12
MILWAUKEE/TIMM PTSUNNY   23   9  54 W15       30.48F WCI  10
RACINE         CLOUDY    25  10  53 W14       30.49F WCI  13
6HR MIN TEMP:  20; 6HR MAX TEMP:  27;

BURLINGTON     MOSUNNY   29  18  63 NW9       30.49S WCI  20
6HR MIN TEMP:  25; 6HR MAX TEMP:  30;

KENOSHA        PTSUNNY   25  11  55 W14       30.48F WCI  13
6HR MIN TEMP:  19; 6HR MAX TEMP:  27;

FOND DU LAC    MOSUNNY   23  10  57 W12       30.46F WCI  12
6HR MIN TEMP:  18; 6HR MAX TEMP:  23;

SHEBOYGAN      MOSUNNY   24   8  50 W14G24    30.44F WCI  12
6HR MIN TEMP:  17; 6HR MAX TEMP:  25;

WEST BEND      PTSUNNY   23  10  58 NW13G21   30.45F WCI  11
JUNEAU         SUNNY     21  12  67 W9        30.48F WCI  11
6HR MIN TEMP:  17; 6HR MAX TEMP:  21;

$$

LSZ147-162-091900-
LAKE SUPERIOR

STATION/POSITION TIME  TEMP    WIND        PRES    WAVE
                       AIR SEA DIR/SP/G            HT/PER
                 (UTC) (F)     (DEG/KT/KT) (MB)    (FT/S)
DEVILS ISLAND    1800   17     280/ 11/ 15 1032.7F
PORT WING        1730   17     260/ 10/ 24 1032.5F
SAXON HARBOR     1740   18     280/  9/ 13 1031.5F
$$

LMZ867-665-643>646-091900-
LAKE MICHIGAN

STATION/POSITION TIME  TEMP    WIND        PRES    WAVE
                       AIR SEA DIR/SP/G            HT/PER
                 (UTC) (F)  C1F1C2F2C3F3C4F4C5F5C6F6C7F7C8M1C9M2Ca!



USA.gov is the U.S. government's official web portal to all federal, state and local government web resources and services.